Home > Time Zones > World Clock > Weather > U.S.A. > Gary > Past weeks

Flag for U.S.A. Weather past 2 weeks in Gary, Indiana, U.S.A.

42 °F

Passing clouds.

Feels Like: 39 °F
Forecast: 47 / 65 °F
Wind: 5 mph from South

Location: Lansing Municipal Airport

Current Time: Oct 10, 2015 at 2:43:36 AM

Latest Report: Oct 10, 2015 at 2:15 AM

Visibility: 10 mi

Pressure: 30.24 "Hg

Humidity: 94%

Dew point: 41 °F

Location of GaryLocation

Historic Weather in Gary — Graph


Gary temperature yesterday

Maximum temperature yesterday: 65 °F (at 1:55 AM)
Minimum temperature yesterday: 43 °F (at 11:55 PM)
Average temperature yesterday: 57 °F

Past Weeks' High & Low Weather Summary

High78 °F (Oct 8, 1:15 PM)100% (Oct 6, 9:15 PM)30.33 "Hg (Oct 6, 9:15 PM)
Low42 °F (Oct 10, 12:15 AM)43% (Oct 2, 7:55 PM)29.88 "Hg (Oct 8, 5:55 PM)
Average60 °F77%30.15 "Hg
* Reported Sep 25 1:15 AM — Oct 10 1:15 AM, Gary, Weather by CustomWeather, © 2015

Note: Actual official high and low records may vary slightly from our data, if they occured in-between our weather recording intervals... More about our weather records


Gary weather history for previous 24 hours

Time TempWeatherWind HumidityBarometerVisibility
1:15 AM
Sat, Oct 10
43 °FPassing clouds.No wind97%30.24 "Hg10 mi
12:55 AM43 °FClear.No wind99%30.24 "Hg10 mi
12:15 AM42 °FClear.No wind94%30.23 "Hg10 mi
11:55 PM
Fri, Oct 9
43 °FClear.No wind93%30.24 "Hg10 mi
11:35 PM46 °FPassing clouds.No wind85%30.24 "Hg10 mi
11:15 PM51 °FPassing clouds.No wind73%30.24 "Hg10 mi
10:55 PM52 °FPassing clouds.3 mph70%30.24 "Hg10 mi
10:35 PM52 °FPassing clouds.No wind72%30.24 "Hg10 mi
10:15 PM52 °FPassing clouds.No wind71%30.24 "Hg10 mi
9:55 PM53 °FClear.No wind70%30.23 "Hg10 mi
9:35 PM53 °FClear.3 mph69%30.23 "Hg10 mi
9:15 PM53 °FPassing clouds.3 mph70%30.22 "Hg10 mi
8:55 PM53 °FPartly cloudy.5 mph67%30.22 "Hg10 mi
8:35 PM54 °FPassing clouds.6 mph66%30.22 "Hg10 mi
8:15 PM54 °FPassing clouds.7 mph66%30.22 "Hg10 mi
7:55 PM54 °FPassing clouds.6 mph65%30.21 "Hg10 mi
7:35 PM54 °FPassing clouds.6 mph64%30.21 "Hg10 mi
7:15 PM55 °FPassing clouds.7 mph61%30.20 "Hg10 mi
6:55 PM56 °FOvercast.13 mph63%30.20 "Hg10 mi
6:15 PM55 °FSunny.7 mph65%30.20 "Hg10 mi
5:55 PM56 °FSunny.10 mph61%30.20 "Hg10 mi
5:35 PM56 °FSunny.9 mph59%30.19 "Hg10 mi
5:15 PM57 °FSunny.12 mph59%30.19 "Hg10 mi
4:15 PM57 °FScattered clouds.10 mph67%30.18 "Hg10 mi
3:55 PM59 °FScattered clouds.8 mph65%30.17 "Hg10 mi
3:35 PM60 °FScattered clouds.13 mph62%30.16 "Hg10 mi
3:15 PM59 °FPartly sunny.14 mph65%30.16 "Hg10 mi
2:55 PM59 °FMostly cloudy.16 mph69%30.15 "Hg10 mi
2:35 PM58 °FCloudy.10 mph69%30.15 "Hg10 mi
2:15 PM58 °FCloudy.14 mph71%30.16 "Hg10 mi
1:55 PM58 °FMostly cloudy.13 mph71%30.16 "Hg10 mi
1:15 PM57 °FOvercast.13 mph73%30.16 "Hg10 mi
12:55 PM57 °FMostly cloudy.12 mph74%30.17 "Hg10 mi
12:35 PM58 °FMostly cloudy.13 mph75%30.17 "Hg10 mi
12:15 PM57 °FMostly cloudy.6 mph78%30.17 "Hg10 mi
11:55 AM58 °FOvercast.13 mph71%30.16 "Hg10 mi
11:35 AM57 °FCloudy.12 mph75%30.16 "Hg10 mi
11:15 AM59 °FMore clouds than sun.12 mph71%30.16 "Hg10 mi
10:55 AM59 °FPartly sunny.9 mph70%30.16 "Hg10 mi
10:35 AM59 °FScattered clouds.13 mph70%30.15 "Hg10 mi
10:15 AM58 °FScattered clouds.13 mph70%30.14 "Hg10 mi
9:55 AM57 °FScattered clouds.14 mph71%30.13 "Hg10 mi
9:35 AM56 °FPartly sunny.9 mph74%30.13 "Hg10 mi
9:15 AM55 °FOvercast.12 mph75%30.12 "Hg10 mi
8:55 AM56 °FOvercast.12 mph74%30.11 "Hg10 mi
8:35 AM56 °FOvercast.12 mph76%30.10 "Hg10 mi
8:15 AM56 °FOvercast.10 mph76%30.09 "Hg10 mi
7:55 AM57 °FOvercast.12 mph79%30.08 "Hg10 mi
7:35 AM57 °FOvercast.8 mph82%30.05 "Hg10 mi
7:15 AM58 °FMostly cloudy.5 mph80%30.04 "Hg10 mi
6:55 AM58 °FMostly cloudy.15 mph80%30.03 "Hg10 mi
6:35 AM58 °FOvercast.12 mph82%30.01 "Hg10 mi
6:15 AM59 °FMostly cloudy.10 mph82%30.01 "Hg10 mi
5:55 AM59 °FOvercast.8 mph82%30.00 "Hg10 mi
5:35 AM59 °FMostly cloudy.5 mph84%30.00 "Hg10 mi
5:15 AM59 °FMostly cloudy.8 mph80%29.99 "Hg10 mi
4:55 AM59 °FMostly cloudy.8 mph82%29.99 "Hg10 mi
4:35 AM60 °FOvercast.9 mph84%29.98 "Hg10 mi
4:15 AM60 °FOvercast.9 mph84%29.97 "Hg10 mi
3:55 AM60 °FOvercast.8 mph83%29.97 "Hg10 mi
3:15 AM61 °FMostly cloudy.12 mph83%29.95 "Hg10 mi
2:55 AM61 °FMostly cloudy.13 mph85%29.95 "Hg10 mi
2:35 AM62 °FMostly cloudy.12 mph84%29.94 "Hg10 mi
2:15 AM63 °FOvercast.10 mph84%29.94 "Hg10 mi
Weather by CustomWeather, © 2015

See weather overviewHow to use our weather pages